Le nostre stazioni meteo in Italia

Pubblicità
Il mio iltempo24.it
Aviano, Italia (16036): Temperatura & dewpoint: 07.12.2019 22:00:00 - 13.12.2019 22:00:00 (CET)Aviano, Italia (16036): velocità del vento: 07.12.2019 22:00:00 - 13.12.2019 22:00:00 (CET)Aviano, Italia (16036): direzione del vento: 07.12.2019 22:00:00 - 13.12.2019 22:00:00 (CET)Aviano, Italia (16036): reduced air pressure: 07.12.2019 22:00:00 - 13.12.2019 22:00:00 (CET)Aviano, Italia (16036): visibility: 07.12.2019 22:00:00 - 13.12.2019 22:00:00 (CET)
Data & Tempo tt [°C] td [°C] ff [km/h] ff [kn] dd ppp [hPa] vv [km]
13.12.2019 22:00:00 5,8 3,0 11 6 SO 987,8 30
13.12.2019 21:00:00 6,0 2,0 8 4 E - 10
13.12.2019 20:00:00 6,0 3,0 34 18 E - 10
13.12.2019 19:00:00 6,6 4,3 39 21 ENE 984,4 18
13.12.2019 18:00:00 4,0 2,0 24 13 NE - 10
13.12.2019 17:00:00 4,0 2,0 28 15 NE - 10
13.12.2019 16:00:00 4,4 2,6 28 15 NE 985,3 4,5
13.12.2019 15:00:00 3,0 1,0 24 13 NE - 5
13.12.2019 14:00:00 3,0 1,0 18 10 NE - 6
13.12.2019 13:00:00 2,6 1,1 16 9 NE 989,7 5
13.12.2019 12:00:00 3,0 1,0 15 8 NE - 3,5
13.12.2019 11:00:00 2,0 1,0 16 9 NE - 3,5
13.12.2019 10:00:00 2,0 0,5 11 6 NNE 994,9 4,0
13.12.2019 09:00:00 2,0 0,0 4 2 NE - 7
13.12.2019 08:00:00 1,0 0,0 2 1 NNE - 6
13.12.2019 07:00:00 1,0 -0,5 4 2 NO 996,9 4,0
13.12.2019 06:00:00 1,0 0,0 5 3 NO - 6
13.12.2019 05:00:00 1,0 0,0 8 4 NNE - 6
13.12.2019 04:00:00 - - - - - - -
13.12.2019 03:00:00 - - - - - - -
13.12.2019 02:00:00 - - - - - - -
13.12.2019 01:00:00 - - - - - - -
13.12.2019 00:00:00 - - - - - - -
12.12.2019 23:00:00 - - - - - - -
12.12.2019 22:00:00 2,0 2,0 4 2 O 1002,6 3,0
12.12.2019 21:00:00 2,0 2,0 2 1 O - 4,0
12.12.2019 20:00:00 2,0 2,0 2 1 NNO - 5
12.12.2019 19:00:00 2,6 2,3 5 3 ONO 1004,0 7
12.12.2019 18:00:00 2,0 2,0 4 2 NNE - 10
12.12.2019 17:00:00 3,0 0,0 5 3 N - 10
12.12.2019 16:00:00 3,0 -0,6 9 5 E 1004,2 15
12.12.2019 15:00:00 3,0 -1,0 2 1 NO - 10
12.12.2019 14:00:00 4,0 -1,0 9 5 S - 10
12.12.2019 13:00:00 4,0 -1,0 9 5 SO 1004,9 25
12.12.2019 12:00:00 4,0 -3,0 9 5 ENE - 10
12.12.2019 11:00:00 3,0 -1,0 11 6 NE - 10
12.12.2019 10:00:00 2,0 -2,5 11 6 NNE 1007,1 20
12.12.2019 09:00:00 1,0 -3,0 15 8 NE - 10
12.12.2019 08:00:00 -1,0 -4,0 8 4 NNE - 10
12.12.2019 07:00:00 -1,0 -3,2 11 6 N 1006,8 15
12.12.2019 06:00:00 -2,0 -4,0 9 5 N - 10
12.12.2019 05:00:00 -2,0 -6,0 5 3 OSO - 10
12.12.2019 04:00:00 - - - - - - -
12.12.2019 03:00:00 - - - - - - -
12.12.2019 02:00:00 - - - - - - -
12.12.2019 01:00:00 - - - - - - -
12.12.2019 00:00:00 - - - - - - -
11.12.2019 23:00:00 - - - - - - -
11.12.2019 22:00:00 -3,0 -6,0 9 5 ONO 1011,1 30
11.12.2019 21:00:00 -2,0 -5,0 9 5 NNE - 10
11.12.2019 20:00:00 -2,0 -4,0 13 7 NE - 10
11.12.2019 19:00:00 -1,0 -4,5 8 4 N 1012,1 30
11.12.2019 18:00:00 2,0 -4,0 5 3 N - 10
11.12.2019 17:00:00 5,0 -4,0 4 2 OSO - 10
11.12.2019 16:00:00 6,8 -4,6 4 2 SSO 1013,5 35
11.12.2019 15:00:00 8,0 -6,0 4 2 SSE - 10
11.12.2019 14:00:00 8,0 -6,0 5 3 NE - 10
11.12.2019 13:00:00 6,2 -5,8 5 3 NNO 1016,0 30
11.12.2019 12:00:00 6,0 -3,0 4 2 N - 10
11.12.2019 11:00:00 6,0 -4,0 8 4 OSO - 10
11.12.2019 10:00:00 3,6 -2,8 4 2 ESE 1019,3 30
11.12.2019 09:00:00 0,0 -4,0 4 2 NNE - 10
11.12.2019 08:00:00 -3,0 -6,0 13 7 N - 10
11.12.2019 07:00:00 -2,4 -5,4 13 7 NE 1020,6 30
11.12.2019 06:00:00 -3,0 -5,0 15 8 NNE - 10
11.12.2019 05:00:00 -2,0 -4,0 13 7 NE - 10
11.12.2019 04:00:00 - - - - - - -
11.12.2019 03:00:00 - - - - - - -
11.12.2019 02:00:00 - - - - - - -
11.12.2019 01:00:00 - - - - - - -
11.12.2019 00:00:00 - - - - - - -
10.12.2019 23:00:00 - - - - - - -
10.12.2019 22:00:00 2,6 -2,3 5 3 OSO 1022,8 15
10.12.2019 21:00:00 2,0 0,0 4 2 SO - 10
10.12.2019 20:00:00 4,0 -3,0 5 3 SSE - 10
10.12.2019 19:00:00 4,8 0,7 11 6 N 1021,0 25
10.12.2019 18:00:00 6,0 4,0 4 2 ENE - 10
10.12.2019 17:00:00 7,0 3,0 8 4 NNO - 10
10.12.2019 16:00:00 10,6 3,9 4 2 SO 1018,7 25
10.12.2019 15:00:00 12,0 4,0 8 4 S - 10
10.12.2019 14:00:00 11,0 4,0 5 3 S - 10
10.12.2019 13:00:00 11,0 3,5 5 3 SSO 1017,5 30
10.12.2019 12:00:00 10,0 3,0 5 3 S - 10
10.12.2019 11:00:00 9,0 3,0 4 2 ESE - 10
10.12.2019 10:00:00 7,0 4,8 5 3 NNE 1016,5 20
10.12.2019 09:00:00 3,0 2,0 8 4 NNE - 10
10.12.2019 08:00:00 1,0 0,0 8 4 N - 10
10.12.2019 07:00:00 1,0 0,3 5 3 NE 1014,0 20
10.12.2019 06:00:00 1,0 1,0 8 4 NE - 10
10.12.2019 05:00:00 1,0 1,0 8 4 NNE - 10
10.12.2019 04:00:00 - - - - - - -
10.12.2019 03:00:00 - - - - - - -
10.12.2019 02:00:00 - - - - - - -
10.12.2019 01:00:00 - - - - - - -
10.12.2019 00:00:00 - - - - - - -
09.12.2019 23:00:00 - - - - - - -
09.12.2019 22:00:00 4,0 3,3 13 7 NNE 1008,0 20
09.12.2019 21:00:00 4,0 3,0 8 4 NNE - 10
09.12.2019 20:00:00 4,0 3,0 8 4 NNE - 10
09.12.2019 19:00:00 4,6 3,9 4 2 NE 1007,0 15
09.12.2019 18:00:00 5,0 4,0 5 3 NO - 10
09.12.2019 17:00:00 7,0 5,0 5 3 O - 10
09.12.2019 16:00:00 8,2 5,5 4 2 ONO 1006,1 15
09.12.2019 15:00:00 8,0 6,0 8 4 SO - 10
09.12.2019 14:00:00 8,0 5,0 2 1 ENE - 10
09.12.2019 13:00:00 7,4 5,0 4 2 ONO 1007,7 15
09.12.2019 12:00:00 7,0 5,0 8 4 NE - 10
09.12.2019 11:00:00 6,0 5,0 5 3 N - 10
09.12.2019 10:00:00 6,4 5,2 8 4 NE 1009,7 15
09.12.2019 09:00:00 6,0 5,0 2 1 NE - 10
09.12.2019 08:00:00 7,0 5,0 5 3 S - 10
09.12.2019 07:00:00 6,0 4,8 5 3 NE 1010,3 7
09.12.2019 06:00:00 6,0 5,0 4 2 NNE - 8
09.12.2019 05:00:00 6,0 5,0 4 2 O - 8
09.12.2019 04:00:00 - - - - - - -
09.12.2019 03:00:00 - - - - - - -
09.12.2019 02:00:00 - - - - - - -
09.12.2019 01:00:00 - - - - - - -
09.12.2019 00:00:00 - - - - - - -
08.12.2019 23:00:00 - - - - - - -
08.12.2019 22:00:00 - - - - - - -
08.12.2019 21:00:00 - - - - - - -
08.12.2019 20:00:00 - - - - - - -
08.12.2019 19:00:00 - - - - - - -
08.12.2019 18:00:00 - - - - - - -
08.12.2019 17:00:00 - - - - - - -
08.12.2019 16:00:00 - - - - - - -
08.12.2019 15:00:00 - - - - - - -
08.12.2019 14:00:00 - - - - - - -
08.12.2019 13:00:00 - - - - - - -
08.12.2019 12:00:00 - - - - - - -
08.12.2019 11:00:00 - - - - - - -
08.12.2019 10:00:00 - - - - - - -
08.12.2019 09:00:00 - - - - - - -
08.12.2019 08:00:00 - - - - - - -
08.12.2019 07:00:00 - - - - - - -
08.12.2019 06:00:00 - - - - - - -
08.12.2019 05:00:00 - - - - - - -
08.12.2019 04:00:00 - - - - - - -
08.12.2019 03:00:00 - - - - - - -
08.12.2019 02:00:00 - - - - - - -
08.12.2019 01:00:00 - - - - - - -
08.12.2019 00:00:00 - - - - - - -
07.12.2019 23:00:00 - - - - - - -
07.12.2019 22:00:00 3,0 1,8 13 7 NE 1020,7 15

tt = Temperatura
td = dewpoint
ff = velocità del vento
dd = direzione del vento
ppp = reduced air pressure
vv = visibility

Stazioni seguenti

WeatherPro
AMSI
MeteoEarth